Orbital Elements at Epoch 2459200.5 (2020-Dec-17.0) TDB
Reference: JPL 45 (heliocentric ecliptic J2000)
Element | Value | Uncertainty (1-sigma) | Units |
e | .1634653768528787 | 4.4005e-08 | |
a | 3.032537903069306 | 1.2375e-08 | au |
q | 2.536822951923444 | 1.385e-07 | au |
i | 8.6534447286617 | 3.6614e-06 | deg |
node | 357.0918356696422 | 2.2113e-05 | deg |
peri | 163.2169208979481 | 2.4265e-05 | deg |
M | 315.2367742188351 | 1.0104e-05 | deg |
tp | 2459440.342784927293 (2021-Aug-13.84278493) | 5.4595e-05 | TDB |
period | 1928.891429673424 5.28 | 1.1807e-05 3.233e-08 | d yr |
n | .1866356988588782 | 1.1424e-09 | deg/d |
Q | 3.528252854215169 | 1.4398e-08 | au |
|
| | Orbit Determination Parameters
Additional Information
|